Location: Hilton Head Island
(32.2163°N, 80.7526°W)
Time: 15:43:43
(UTC-04:00)

Vanguard 1 - Pass Details

Date: 19 February 2026
Orbit: 653 x 3818 km, 34.2° (Epoch: 9 March)

Event Time Altitude Azimuth Distance (km) Brightness Sun altitude
Rises 00:07:51 0° 282° (WNW) 7,715 14.8 -68.0°
Reaches altitude 10° 00:15:15 10° 269° (W) 6,883 14.3 -68.5°
Enters shadow 00:21:58 17° 253° (WSW) 6,289 14.0 -68.8°
Maximum altitude 00:29:33 20° 230° (SW) 5,887 - -69.0°
Drops below altitude 10° 00:42:34 10° 190° (S) 6,103 - -69.0°
Sets 00:48:44 0° 175° (S) 6,627 - -68.9°
